RH
56 62 77 80 77 74 72 68 73 84 85 82 80 83 80 64 49 82 74 65 86 74 65 62 58 52 53 48 39 35 51 48 34 30 27 24 30 23 22 21 18 18 22 22 22
52 63 75 81 89 85 78 74 75 80 77 75 81 79 75 68 60 85 49 50 75 62 64 55 54 53 54 43 38 41 59 49 34 27 35 29 27 25 25 25 22 20 19 21 23
55 56 67 75 83 78 78 80 76 74 77 76 77 74 71 70 89 84 40 34 64 70 57 54 56 53 52 44 42 43 53 42 36 32 32 30 27 25 25 28 22 21 21 28 28
56 62 67 66 77 75 78 73 72 71 76 82 75 66 72 81 86 55 34 28 58 78 63 57 58 53 55 55 45 50 41 37 35 34 34 28 24 27 24 22 21 21 21 22 25
63 70 72 74 67 67 71 75 74 80 77 81 82 70 84 100 72 56 74 28 44 81 74 69 57 54 60 52 47 50 45 39 36 35 32 27 28 30 25 21 20 21 21 20 22
72 71 63 62 62 59 53 72 71 78 73 61 74 70 95 95 48 66 86 61 30 80 78 71 55 50 48 50 50 41 38 33 30 28 28 30 28 27 23 21 19 19 21 20 20
78 72 66 69 68 58 56 55 74 83 84 63 74 84 99 83 48 50 81 88 41 74 80 65 53 49 49 50 42 33 43 40 32 28 30 26 30 27 20 20 19 17 22 21 19
86 81 85 78 68 71 67 74 63 80 75 63 75 97 93 59 50 61 64 90 72 87 73 58 55 54 53 46 34 34 36 45 35 33 29 28 43 30 20 21 21 18 22 21 21
98 96 96 87 88 88 71 69 63 61 64 64 95 99 79 58 60 55 66 73 80 93 81 73 65 60 53 51 47 46 51 47 41 31 29 30 35 28 21 21 20 22 21 20 22
93 100 99 99 88 94 79 71 76 84 81 90 91 91 82 83 50 52 57 65 82 96 91 85 83 70 49 48 72 53 50 45 41 26 36 34 34 29 23 19 20 22 26 25 23
93 99 96 100 99 97 89 85 100 98 100 90 87 76 69 66 65 60 49 70 88 99 92 88 92 91 78 46 44 42 39 40 36 30 32 36 33 31 26 24 26 28 30 31 29
90 97 95 100 94 94 92 100 86 84 94 77 90 74 79 66 71 81 69 87 93 90 78 98 91 75 59 51 41 41 42 43 36 29 26 28 30 30 21 27 29 30 32 30 29
87 100 96 96 90 99 92 90 97 81 75 77 75 75 71 65 76 84 95 92 79 76 82 81 70 65 50 45 46 45 46 41 41 36 32 32 40 23 26 30 33 32 31 32 33
86 100 99 94 94 95 100 94 85 81 87 90 85 67 78 64 92 85 97 87 71 73 70 70 51 58 56 45 40 48 37 36 35 39 45 35 52 30 33 35 36 35 31 33 34
82 100 96 100 95 93 99 92 92 99 97 85 83 79 74 76 94 97 99 82 71 70 72 67 51 54 46 42 38 39 34 33 33 40 40 39 44 40 36 39 41 41 33 32 36
64 94 92 90 82 86 93 92 98 100 98 95 97 97 87 95 90 93 99 74 62 58 52 46 35 41 40 34 34 36 33 44 47 48 57 46 44 41 43 36 40 41 34 32 37
51 73 95 96 96 92 90 98 100 100 90 97 93 82 80 88 85 87 92 88 80 75 73 58 29 23 29 32 26 35 46 60 59 63 62 39 43 38 32 37 33 43 36 33 34
45 55 74 90 100 100 99 100 100 95 90 78 78 79 89 75 80 81 88 81 59 48 59 68 47 30 23 32 36 39 44 64 64 70 55 34 42 32 30 31 31 34 33 34 34
42 48 53 59 78 100 100 99 96 86 77 80 73 93 96 80 68 72 75 55 49 48 45 49 48 32 29 24 31 35 47 40 50 50 55 49 40 26 44 49 44 42 37 36 35
42 53 58 66 76 100 99 94 92 76 68 70 89 86 91 71 66 61 73 55 66 50 47 47 53 39 32 28 26 34 34 46 55 54 53 49 40 41 41 50 50 51 40 36 36
59 64 62 76 85 100 96 93 92 67 75 89 75 83 69 68 58 62 69 61 57 56 50 50 52 54 38 42 46 39 38 34 46 52 55 54 46 36 36 43 47 47 39 36 38
62 63 65 82 83 87 91 89 86 89 93 83 51 55 67 70 61 74 75 67 58 51 57 55 64 71 54 40 37 38 40 38 47 45 53 52 45 30 34 33 34 38 36 39 40
56 58 73 76 81 85 66 76 87 90 79 70 77 65 57 65 72 68 70 60 57 55 58 54 68 79 60 52 48 50 42 39 47 52 56 54 48 34 38 36 37 39 40 39 43
57 60 50 66 64 70 67 67 74 74 70 61 61 60 66 66 63 70 69 62 54 54 51 46 54 58 62 54 55 58 55 46 44 58 48 56 39 34 34 36 37 35 30 43 52
50 60 59 55 58 56 52 56 62 61 56 58 56 53 58 66 62 70 64 56 50 48 47 44 48 45 42 39 38 45 50 56 56 49 45 39 43 34 36 34 33 34 38 50 54
50 56 52 60 50 56 61 52 56 57 55 60 65 54 53 61 59 64 61 55 53 47 50 47 51 36 34 34 36 35 34 36 42 48 52 47 42 32 31 33 45 44 49 52 52
54 53 46 60 57 54 58 53 51 55 47 49 54 48 50 44 40 46 49 49 49 49 50 46 41 38 34 47 45 46 45 43 36 35 32 34 30 35 37 46 50 49 49 50 48
Wind_Speed
12 15 17 18 19 20 20 21 22 23 22 21 22 21 19 18 19 19 27 33 28 14 18 21 19 15 9 6 7 3 3 2 5 3 4 15 9 14 13 7 4 2 2 4 11
10 12 14 16 16 17 18 19 20 21 22 21 22 22 21 16 19 25 32 34 30 18 22 21 21 16 8 6 6 5 4 7 6 3 5 17 14 19 9 19 3 3 5 7 13
13 12 13 15 17 19 18 17 18 18 18 20 21 20 18 13 13 27 32 35 35 28 21 23 16 16 11 7 6 6 6 5 14 19 17 10 16 12 6 6 7 5 10 13 14
10 12 13 14 16 15 17 18 17 17 18 20 20 19 17 15 8 3 22 35 40 35 25 22 16 10 6 6 11 3 12 15 19 25 15 6 16 10 13 15 17 19 15 15 19
10 10 11 12 13 14 18 18 18 18 20 21 20 19 18 18 24 3 2 33 41 40 30 23 16 16 6 7 8 4 7 17 26 27 22 19 12 12 15 21 16 16 13 16 18
11 11 13 14 15 14 16 18 20 20 18 18 18 18 21 17 32 6 3 27 43 42 32 27 16 18 12 7 6 6 8 15 14 20 15 7 14 7 16 26 24 18 15 15 16
13 12 12 14 15 14 15 17 20 20 19 19 18 21 23 24 20 27 6 16 37 41 34 32 15 18 8 3 7 9 6 8 14 18 7 10 8 9 25 25 26 19 14 16 18
12 14 16 14 14 16 15 15 17 18 18 19 19 21 13 30 24 18 20 14 30 35 34 29 20 16 3 2 4 2 2 2 5 5 11 8 9 13 16 12 20 18 9 9 16
14 13 13 15 16 15 14 15 15 16 17 18 18 17 8 16 26 22 22 18 25 31 33 24 20 5 3 3 3 3 3 5 9 9 3 6 7 12 12 15 11 7 3 9 9
15 15 13 13 10 13 13 14 13 15 16 15 17 13 12 16 24 25 23 22 21 31 28 18 10 3 2 4 6 5 4 5 6 4 7 6 11 9 16 9 9 10 13 12 9
14 15 12 9 6 9 15 14 10 6 23 6 13 10 6 19 17 18 24 24 26 26 14 18 5 10 10 10 5 4 3 4 8 9 8 8 6 11 6 9 14 15 14 13 11
18 15 13 4 4 11 15 10 13 8 9 9 3 21 5 23 13 18 26 22 27 20 20 7 17 13 9 6 5 5 6 9 9 4 1 1 8 7 3 6 16 17 13 11 10
20 13 8 6 8 10 17 20 12 21 6 5 11 20 9 18 10 19 29 20 23 22 23 8 10 13 9 5 8 6 8 5 6 6 4 0 6 2 2 6 11 12 12 10 9
19 10 7 6 7 10 7 14 22 17 4 3 7 8 12 16 6 16 17 19 10 22 17 5 6 16 11 11 8 8 8 8 3 2 3 2 4 3 4 5 3 11 12 11 9
15 8 1 7 1 6 9 22 19 7 3 6 5 9 14 9 17 5 15 14 21 20 6 8 13 16 13 10 9 10 6 3 0 1 3 2 1 6 6 6 7 9 13 12 9
11 1 10 16 15 13 19 17 7 3 4 6 8 12 13 7 3 10 4 14 21 8 4 2 14 10 10 5 7 6 4 7 4 2 2 7 7 5 8 11 6 6 16 15 11
12 10 14 17 21 24 24 13 3 1 4 7 7 11 12 6 6 6 3 7 7 12 6 5 2 2 5 5 3 5 6 1 1 1 6 1 3 8 8 8 15 12 21 17 12
14 14 15 21 17 13 24 5 3 4 2 5 13 13 4 14 6 12 5 9 3 10 8 7 9 8 5 6 7 6 7 5 6 4 4 1 6 6 5 4 17 28 24 19 14
9 10 16 16 21 13 12 3 2 2 5 10 14 5 4 7 5 7 2 6 4 6 7 6 3 2 2 3 6 5 4 4 2 2 2 3 6 2 7 8 17 22 23 19 14
5 6 9 6 15 14 4 4 3 5 11 6 5 5 6 14 10 8 9 5 7 8 3 5 5 1 2 3 2 4 4 2 2 3 4 4 4 4 2 7 8 10 20 18 14
3 3 2 2 17 6 2 3 6 17 7 4 6 10 15 11 10 8 5 3 1 5 4 6 4 1 3 4 7 2 1 2 3 4 4 1 5 5 8 8 11 11 22 20 17
2 0 4 22 2 1 3 4 5 4 8 4 17 23 9 7 5 3 5 2 1 5 6 2 5 4 3 1 1 3 6 5 4 3 1 3 5 3 2 7 13 20 23 17 15
5 2 4 18 2 2 2 4 2 4 3 7 4 1 4 3 5 3 4 2 5 3 6 5 2 4 3 4 2 4 4 4 4 3 5 5 5 4 5 6 4 9 10 15 16
3 1 4 9 3 6 4 3 4 4 6 6 4 5 3 6 7 4 3 3 3 3 4 3 3 5 7 4 5 5 5 5 5 4 4 5 2 1 4 5 5 7 14 16 18
2 2 2 2 3 3 2 2 3 4 6 4 5 3 5 4 3 4 2 3 4 2 3 3 4 2 2 3 3 4 6 8 7 4 6 1 5 4 6 7 11 11 11 19 21
3 1 2 3 2 4 4 1 3 3 3 4 7 3 7 5 1 5 5 2 2 3 3 3 3 2 2 4 3 3 4 6 5 4 6 2 10 4 8 5 1 3 16 25 24
3 1 1 4 2 3 2 5 4 6 7 8 10 13 12 1 7 12 12 11 5 4 2 3 3 2 2 3 5 5 5 5 4 4 5 4 5 4 5 5 6 5 17 25 25
Wind_Direction
277 268 262 258 254 253 250 246 242 240 241 239 237 241 244 241 238 230 227 215 204 197 208 208 225 229 227 235 221 206 73 242 252 222 278 325 340 328 337 317 313 193 227 261 185
288 274 261 256 254 254 247 237 235 236 242 238 234 236 240 242 246 241 226 212 198 180 192 195 208 211 203 213 207 158 151 224 217 233 284 306 310 314 336 330 309 267 261 208 193
294 277 265 258 253 247 242 237 232 234 233 232 231 233 233 233 258 253 224 212 199 196 190 188 200 196 207 201 206 185 201 224 267 274 281 274 294 308 312 312 294 298 287 212 207
296 287 275 255 247 246 237 240 235 229 228 232 228 224 214 200 219 70 225 213 193 195 198 185 196 196 195 196 220 195 239 243 273 279 286 257 291 286 276 264 288 299 286 251 232
290 282 272 266 261 255 246 238 229 225 228 227 226 214 201 208 221 236 244 200 194 199 200 198 199 197 182 196 221 213 252 265 273 280 282 279 274 259 268 289 299 313 260 257 241
297 290 275 268 265 253 247 243 230 225 228 225 220 207 207 225 211 197 99 194 197 196 199 196 203 189 197 210 182 227 240 268 285 284 284 268 282 273 273 281 291 296 254 258 248
299 294 290 279 265 261 251 237 231 225 224 222 216 208 212 220 214 213 216 206 195 197 195 193 197 188 199 204 234 261 276 304 263 262 251 293 293 241 273 284 282 280 258 252 254
289 287 287 284 266 256 248 239 232 230 225 219 213 207 225 229 218 210 214 192 200 195 201 196 199 205 206 262 350 306 73 304 284 249 243 184 275 276 294 338 269 255 270 264 257
309 303 283 279 268 255 237 228 228 228 221 209 209 188 226 228 226 206 192 206 196 194 199 202 196 194 219 115 15 359 245 242 309 222 161 171 257 262 266 330 292 266 155 120 115
308 309 294 281 248 244 222 216 223 230 206 199 196 177 223 207 215 212 199 199 198 192 195 193 187 155 173 164 198 204 231 256 242 269 187 184 247 277 293 301 266 139 127 110 103
316 312 295 301 267 206 202 200 166 224 177 174 194 214 242 198 183 202 196 185 191 194 188 196 177 191 193 189 186 169 247 276 272 262 172 211 235 261 284 131 127 131 124 111 95
319 312 296 281 224 200 194 193 178 181 157 184 201 207 216 178 161 177 180 179 176 188 184 163 209 194 191 187 203 241 283 287 287 290 215 226 264 278 140 162 149 144 132 122 111
333 330 289 235 213 213 206 208 197 153 142 203 240 218 220 177 173 173 180 202 180 184 189 189 173 173 186 174 209 223 219 249 231 325 329 44 302 194 13 130 147 142 129 119 99
335 333 280 206 224 244 235 159 158 162 134 203 200 185 194 177 119 207 192 181 161 183 172 188 154 177 200 214 166 232 219 234 252 39 240 59 274 282 220 188 165 152 132 113 103
343 355 118 168 170 190 145 155 161 225 124 176 156 165 179 168 130 183 194 173 162 171 139 197 159 175 194 211 175 226 189 164 181 98 28 294 78 267 140 227 210 200 142 127 116
332 95 140 134 152 179 175 198 265 227 109 197 152 174 163 216 124 155 171 142 150 113 52 151 164 159 193 174 187 151 91 38 45 73 306 222 169 259 189 210 194 192 157 140 131
313 258 214 192 198 187 192 214 237 336 160 140 166 136 151 137 113 170 123 127 147 144 135 343 191 169 147 111 59 85 82 336 321 319 226 143 136 252 214 196 188 168 165 152 143
297 252 241 235 224 208 200 210 342 161 170 142 136 116 116 132 138 133 125 118 128 97 124 183 166 182 185 167 170 180 157 163 206 198 239 80 230 251 248 158 158 167 161 163 159
296 269 257 255 229 198 182 232 79 87 112 122 114 116 127 108 157 110 74 156 133 198 144 151 237 55 96 124 132 189 179 191 138 14 39 225 284 320 33 96 131 152 164 171 174
299 270 266 258 210 183 245 45 84 103 128 152 113 193 129 139 137 123 183 231 169 198 212 184 108 257 159 103 35 138 166 96 353 198 242 290 278 247 131 148 140 160 175 183 190
301 251 255 123 157 189 71 69 77 143 147 228 158 141 137 148 158 174 172 83 188 178 159 146 107 213 105 195 175 123 232 89 132 140 188 258 269 217 200 192 170 186 192 196 195
268 60 189 155 124 76 100 143 110 192 235 278 121 130 162 161 149 101 124 79 270 163 145 174 118 125 194 278 192 197 193 153 133 215 156 153 273 317 186 182 173 198 206 203 195
334 149 128 186 140 71 91 101 97 170 203 143 113 343 83 125 110 87 96 27 63 103 158 180 109 98 51 359 307 215 198 153 111 105 202 150 260 340 65 148 184 184 201 208 187
311 29 118 183 101 119 126 73 121 79 24 63 115 133 100 12 31 98 78 43 65 99 88 116 119 165 183 184 142 185 179 173 148 143 200 214 199 215 224 193 198 201 241 199 173
259 244 142 137 344 117 103 112 111 81 109 9 12 67 126 122 112 112 110 120 49 37 59 88 116 98 88 108 110 176 180 189 191 176 189 178 206 223 249 252 258 269 225 172 177
180 201 110 109 149 81 12 25 124 130 34 98 108 36 98 109 208 160 132 150 162 44 67 11 131 123 45 19 61 251 255 241 220 212 267 312 292 205 278 308 264 247 172 179 185
134 191 225 342 23 97 189 170 176 142 40 58 129 98 91 180 55 87 85 79 102 113 88 61 106 83 220 339 320 278 211 208 181 180 170 211 245 20 344 26 52 209 190 190 189